Theta_e
306 305 306 305 305 305 305 304 304 303 303 298 295 293 285 284 284 294 296 298 301 294 286 285 281 279 281 287 286 288 288 288 290 288 290 288 291 291 291 290 288 289 287 285 284 285 283 285 282 284 284 284 287 288 288 290 291 291 286 287 288 291 281 278 279 282 284 286 288 289 290 289 285 285 285 281 278 280 279 277 276 274 277 274 273 271 277
305 304 305 305 305 306 305 304 303 303 303 298 295 287 285 286 286 288 294 296 299 290 281 278 277 280 283 283 284 287 287 289 286 285 287 288 290 290 290 292 292 288 292 287 284 286 280 287 286 285 287 285 290 291 290 292 290 289 286 283 290 281 283 280 276 275 278 280 285 285 288 287 283 282 284 284 282 282 283 283 282 275 277 278 273 270 274
305 304 305 304 304 305 304 304 303 303 303 302 291 286 287 286 287 288 291 293 292 284 282 279 274 279 280 280 280 282 285 290 289 287 286 291 291 290 288 291 291 289 292 288 289 287 285 283 289 289 288 287 292 293 292 293 291 293 293 294 292 284 281 279 274 271 269 269 271 274 277 281 284 285 283 283 281 281 280 276 278 274 277 281 274 273 284
304 304 305 304 305 305 304 303 303 303 303 302 290 290 287 281 275 281 282 285 285 284 284 282 280 279 281 280 280 281 281 286 288 289 288 291 292 289 289 291 293 290 289 285 285 285 288 284 285 287 285 287 290 292 293 293 292 296 298 296 290 283 285 282 280 278 276 278 280 285 286 283 280 282 281 281 282 283 283 280 275 275 277 277 280 282 283
304 304 305 304 305 305 304 304 303 302 302 302 288 286 285 281 278 275 277 282 281 280 280 282 284 281 284 278 281 280 282 283 285 290 283 290 289 289 289 291 288 287 286 285 285 286 286 288 287 286 287 289 290 294 293 293 295 299 297 297 289 285 281 283 282 282 282 283 283 286 286 282 282 281 280 281 281 282 281 279 277 282 280 277 283 285 282
304 303 305 304 305 305 304 303 303 302 302 301 291 284 282 276 278 281 283 280 275 277 276 283 282 283 283 281 282 280 281 281 280 286 289 289 289 286 291 292 290 288 286 286 283 285 285 286 284 289 289 288 290 290 293 292 296 297 295 295 288 284 280 283 283 282 284 285 285 286 285 285 283 283 282 281 282 282 280 281 283 285 280 278 282 283 282
303 303 304 304 305 305 304 303 303 303 301 300 287 283 282 283 282 282 285 278 281 279 282 284 283 281 279 279 281 280 281 280 283 283 283 285 285 289 283 286 287 288 289 287 285 286 282 283 287 287 287 288 288 286 288 294 295 293 291 291 292 286 282 284 284 282 284 284 285 286 284 284 284 283 283 285 284 283 283 284 286 286 284 285 285 285 285
304 303 304 305 305 305 304 303 303 302 301 295 292 288 282 283 283 280 285 287 284 284 283 281 279 277 283 278 279 281 280 280 282 284 283 280 283 290 285 285 287 287 288 288 285 287 288 287 284 289 288 288 289 286 287 286 291 294 289 289 292 285 281 286 285 282 282 282 283 284 284 284 281 284 284 285 286 286 287 287 287 288 286 286 286 285 285
304 303 304 305 304 305 305 303 303 301 300 290 289 289 292 290 289 289 285 281 280 282 280 279 279 276 277 277 279 281 282 281 283 283 287 285 284 287 285 287 286 287 287 287 286 289 290 289 289 290 290 285 291 286 286 291 286 290 290 290 290 288 283 286 284 280 279 280 282 282 284 284 283 283 284 284 285 283 285 285 288 285 283 285 285 284 284
304 303 303 304 304 305 305 303 303 301 300 293 291 287 293 293 295 294 289 282 285 279 279 280 277 273 278 281 281 281 281 284 285 281 287 290 291 290 288 287 286 285 286 285 287 290 290 290 291 292 293 294 294 295 293 291 288 289 289 292 288 287 284 283 284 280 277 279 283 283 283 284 281 281 285 286 286 287 288 289 290 289 288 284 282 284 290
304 303 303 304 304 304 305 304 302 302 298 293 291 290 293 291 290 291 291 282 277 278 279 279 278 281 280 282 282 284 283 284 285 280 282 287 287 290 288 287 285 285 285 289 294 292 291 292 293 294 294 293 294 295 295 295 293 291 290 289 289 290 288 284 285 280 279 281 281 284 281 274 276 287 290 290 287 287 286 286 288 290 290 287 290 291 294
304 303 303 303 303 304 305 304 302 302 300 296 297 293 295 296 294 293 287 281 279 280 280 278 279 281 281 283 284 282 282 283 283 286 282 285 287 288 288 288 288 282 291 296 295 293 294 296 295 296 295 295 294 295 295 292 293 294 294 290 288 288 287 285 285 281 280 280 281 277 270 273 283 289 291 292 291 291 289 290 291 291 292 292 291 292 293
304 304 303 303 303 303 305 303 302 301 301 296 297 293 296 298 293 291 289 285 280 282 279 280 283 283 283 284 283 284 285 285 286 287 287 285 285 287 288 288 287 289 294 292 292 293 291 288 290 291 292 293 294 294 292 290 290 292 292 294 290 286 285 285 284 282 278 276 275 269 270 281 288 292 293 294 293 290 289 290 292 293 293 292 290 292 294
304 304 303 303 303 303 304 303 302 301 301 299 293 295 296 296 292 291 289 283 282 283 283 283 284 281 281 283 283 284 285 284 285 287 285 289 287 286 288 291 293 294 293 292 292 290 287 287 283 285 286 286 285 284 289 291 291 290 290 292 293 290 289 286 283 285 279 278 276 275 282 284 286 287 291 293 290 291 288 284 290 292 298 299 298 299 300
305 304 303 303 303 303 304 303 302 301 301 302 293 293 295 296 296 293 293 289 282 284 285 279 279 281 284 284 285 282 282 282 282 283 287 289 288 289 290 292 294 293 292 291 289 287 285 284 283 281 283 283 279 281 288 286 292 294 294 294 294 293 287 288 284 282 281 279 277 272 274 274 281 290 297 300 301 299 296 293 289 294 298 302 301 299 301
304 304 303 303 303 303 304 303 302 301 301 302 294 295 296 297 297 296 293 289 286 280 281 285 285 285 284 284 285 283 281 281 282 283 283 284 288 289 291 292 293 293 293 292 287 286 286 284 281 282 281 282 287 285 282 287 287 294 296 295 293 294 293 289 285 283 284 281 276 271 273 278 283 287 294 300 303 302 300 291 286 293 295 300 302 301 302
305 304 304 303 303 303 304 303 303 301 300 300 293 293 293 298 297 295 292 290 289 283 288 289 289 287 285 283 284 281 281 281 283 280 279 281 284 285 288 291 292 293 292 288 287 286 285 284 285 283 284 287 283 282 286 286 284 286 292 292 290 289 286 285 284 283 281 280 278 277 276 280 287 292 297 302 303 301 289 277 276 289 299 302 302 301 302
305 305 304 303 303 303 304 303 303 302 300 301 296 292 294 297 297 297 293 290 284 284 285 286 285 282 282 283 283 286 286 284 285 286 283 285 284 283 286 288 287 291 294 287 286 285 285 284 282 282 281 289 289 289 280 284 282 284 284 285 284 285 284 285 283 280 281 281 279 277 280 287 289 293 301 302 301 291 279 276 282 297 302 303 303 303 304
305 305 304 303 303 303 304 303 303 302 301 301 299 295 292 291 294 296 294 290 286 282 286 290 290 288 288 290 288 288 288 287 286 283 282 281 281 286 288 288 289 283 289 285 286 285 284 285 288 285 283 285 287 282 286 283 283 287 288 285 285 285 285 284 284 282 281 281 278 278 279 286 296 302 301 302 291 279 277 288 299 302 302 303 304 304 304
305 305 304 304 303 303 303 303 303 302 301 301 299 294 294 293 295 296 293 287 289 286 289 289 289 286 288 286 283 282 284 285 285 283 279 278 283 287 285 281 286 287 284 288 285 288 285 283 284 286 284 284 285 289 285 286 288 285 285 288 285 286 284 284 282 282 281 276 277 276 278 287 301 301 297 299 285 284 296 302 303 304 303 303 304 305 305
305 305 305 304 303 303 303 303 303 302 301 301 299 296 293 292 293 295 297 294 288 284 285 292 291 290 289 288 289 289 287 284 283 281 283 283 286 284 276 278 282 284 283 288 284 285 286 284 285 284 287 284 286 286 283 283 285 291 290 287 287 292 285 285 285 286 283 279 280 282 287 295 302 301 290 298 302 304 305 304 301 305 305 304 303 305 307
306 305 305 304 303 304 304 303 303 302 302 301 301 297 292 294 293 295 296 296 289 286 288 290 291 291 292 294 293 293 292 291 291 291 286 284 286 285 284 285 285 286 290 294 289 288 290 287 289 285 284 285 289 284 286 283 283 288 294 292 284 293 289 289 285 291 288 285 286 292 298 300 303 303 303 304 306 307 307 306 306 305 306 308 306 306 310
306 305 305 304 304 304 304 303 303 302 302 302 301 296 292 293 293 296 295 291 293 294 295 293 294 293 294 294 296 296 295 296 294 293 291 287 284 283 284 283 284 289 292 296 291 290 289 289 285 289 286 287 286 284 286 285 284 287 285 294 291 296 298 297 293 291 295 296 296 298 299 301 303 304 305 305 306 308 308 307 306 307 308 308 307 309 311
306 305 305 304 304 304 304 303 303 302 302 302 301 294 292 293 294 295 293 293 289 285 289 291 286 282 283 286 291 293 295 295 295 295 295 293 284 283 284 286 288 289 291 295 298 292 289 289 289 290 285 290 293 285 284 284 285 290 288 287 292 296 298 294 289 292 289 286 296 297 296 300 303 303 305 305 307 306 308 308 308 308 309 309 310 309 309
305 305 305 304 304 304 304 303 303 302 303 302 300 300 299 295 294 295 291 284 285 284 281 284 285 290 292 293 294 293 294 296 297 296 294 294 291 287 286 287 290 290 289 292 295 292 287 286 287 287 284 291 294 286 291 286 288 294 285 288 291 289 299 293 290 290 287 288 294 296 299 302 304 303 302 302 304 306 307 309 309 309 309 310 310 310 309
305 305 305 304 304 304 304 304 303 303 303 303 302 295 293 294 295 296 295 293 291 289 283 282 285 291 292 292 291 292 294 294 294 295 295 294 294 293 292 292 292 293 291 292 291 287 286 286 286 287 286 287 295 288 287 292 291 295 290 290 296 296 297 285 290 286 290 295 298 300 300 300 302 303 304 304 305 305 306 308 309 310 309 309 310 310 310
305 305 305 304 304 304 304 304 303 303 303 303 301 297 295 295 295 295 292 292 287 282 283 281 286 290 292 290 293 294 293 292 292 292 293 294 294 294 293 291 289 290 289 289 289 288 287 285 284 285 287 287 291 289 290 291 291 288 289 295 298 296 290 295 291 286 287 288 294 299 290 289 298 301 302 304 305 306 306 307 307 309 308 309 309 310 311
305 305 305 304 304 304 304 304 304 304 304 303 301 298 297 295 294 295 296 295 289 282 282 284 285 290 294 288 291 291 292 294 292 291 291 291 292 293 292 290 290 288 287 286 283 285 285 284 286 284 285 287 288 287 290 291 292 291 292 294 297 294 294 294 288 288 289 297 300 301 300 299 300 301 302 302 304 305 305 305 305 307 309 309 309 308 309
305 305 305 304 304 304 304 304 304 304 303 302 297 294 290 293 295 296 296 298 296 291 288 288 291 285 278 286 292 291 292 292 292 291 291 291 290 290 290 290 288 287 287 287 286 286 285 284 283 286 288 291 290 286 287 286 286 287 291 296 297 299 300 297 296 297 299 301 301 301 299 297 299 301 300 300 302 304 303 305 306 306 307 309 309 308 308
305 305 304 304 304 304 304 304 304 304 302 299 294 284 281 289 294 295 297 298 297 294 286 284 281 282 287 288 288 290 291 292 292 292 291 290 290 290 290 289 288 290 289 284 284 285 283 284 283 285 289 295 290 283 283 285 286 289 295 295 297 300 300 300 300 297 296 302 303 303 301 300 302 303 302 301 302 303 303 303 304 305 307 308 308 308 309
305 305 305 304 304 304 304 303 304 303 301 296 290 280 278 279 289 298 299 297 297 292 286 285 283 287 284 286 287 288 290 292 292 291 291 291 291 291 291 291 289 291 284 284 286 283 283 283 282 286 288 293 287 284 285 284 284 287 293 293 295 298 299 299 300 300 300 301 303 304 302 301 301 301 301 301 301 301 302 303 304 305 305 305 307 307 308
305 305 304 304 304 304 303 304 304 303 299 296 291 286 282 287 289 294 299 297 293 290 286 283 282 281 280 285 289 291 291 291 292 292 292 293 292 291 291 292 289 292 288 283 282 286 285 282 285 286 286 291 287 281 281 281 283 286 291 292 294 297 300 299 300 300 301 301 301 299 298 298 300 298 297 300 301 301 301 301 302 303 304 304 304 306 307
305 304 304 304 304 303 303 304 304 303 297 299 302 302 301 301 301 300 300 293 293 288 288 284 281 284 281 285 289 288 290 291 289 289 291 290 293 291 289 291 289 290 299 290 285 285 282 282 283 287 291 288 283 280 283 284 285 290 291 292 294 295 297 298 299 301 300 300 300 296 295 296 298 300 301 301 301 300 300 300 300 301 301 301 301 302 304
304 304 304 304 303 303 303 303 303 301 299 295 289 288 292 299 299 301 297 294 289 287 286 283 282 282 282 287 282 286 292 288 286 286 286 290 292 291 287 288 289 288 289 286 283 286 283 285 286 283 283 285 281 280 280 286 289 290 291 292 293 294 295 295 296 297 299 300 300 300 299 300 301 301 300 300 300 300 300 300 300 299 299 299 299 300 302
304 304 304 303 303 304 303 302 296 296 292 293 292 293 293 299 300 301 299 291 283 283 285 286 286 282 280 280 275 282 290 289 286 286 285 288 290 291 288 285 284 285 286 290 283 282 283 285 287 282 284 283 280 279 280 286 290 290 290 291 292 292 293 292 293 295 297 299 300 300 300 300 298 297 298 298 299 299 299 299 299 298 297 297 298 299 300
304 304 303 303 302 300 296 296 295 292 289 289 291 298 302 303 301 296 293 292 290 285 284 285 284 281 280 275 276 280 290 287 285 286 285 285 289 287 285 283 284 285 287 284 284 282 284 290 286 283 279 282 281 283 287 290 290 291 290 290 291 290 289 290 292 293 294 296 298 299 299 299 297 297 297 297 298 298 298 298 298 298 297 296 296 298 299
303 303 304 302 297 294 288 288 295 294 291 292 294 302 301 299 296 296 293 292 294 296 289 285 283 283 282 280 278 282 288 283 286 285 284 285 284 283 282 281 281 283 286 280 276 283 287 287 283 279 279 281 283 288 289 291 291 290 289 290 291 291 291 292 292 292 293 293 294 295 297 296 296 296 296 296 296 297 297 296 296 295 295 295 296 296 297
303 301 296 293 289 283 283 284 289 294 301 301 302 292 288 288 283 287 289 287 289 295 288 289 284 286 287 283 280 286 286 282 282 283 281 277 284 283 280 283 283 284 279 277 280 289 281 280 277 279 281 284 286 288 291 293 293 291 290 290 290 291 291 290 291 292 291 291 291 292 293 294 294 295 295 295 296 295 295 296 296 296 296 296 296 296 297
300 296 294 292 287 284 285 291 296 303 297 295 291 286 283 280 280 283 286 287 287 286 287 287 285 288 286 283 284 289 286 284 282 279 282 283 283 282 282 281 283 280 275 278 283 287 283 279 274 274 279 286 289 291 293 293 294 293 291 290 290 290 291 291 291 291 290 289 289 290 290 291 292 293 294 294 296 296 296 296 296 296 296 296 296 296 297
294 290 288 287 286 287 293 294 302 297 291 286 281 281 281 283 282 279 278 281 282 284 286 283 287 287 287 284 281 283 287 286 281 282 279 286 286 282 281 280 279 280 275 274 279 279 279 279 276 275 279 286 289 292 293 293 293 294 293 291 290 291 290 291 291 290 290 290 291 291 290 291 292 292 292 293 293 294 295 296 296 296 296 296 294 296 295
293 291 290 287 290 290 289 291 289 286 283 281 280 278 277 277 280 277 277 275 275 277 283 282 282 283 287 287 284 282 288 290 287 284 282 284 285 284 279 280 281 279 275 275 279 276 274 277 278 281 284 289 291 293 293 294 294 294 294 293 292 291 290 291 292 291 292 293 292 292 291 291 291 291 291 291 292 293 293 294 295 295 295 295 295 295 296
294 293 293 292 292 291 290 288 283 283 281 280 277 275 276 278 278 279 278 277 275 273 281 283 282 280 282 285 285 285 284 287 283 282 283 283 284 282 279 278 278 277 275 279 279 275 280 280 282 285 288 292 293 293 293 293 294 294 294 294 293 291 291 291 291 292 291 291 290 290 291 290 291 292 291 291 292 292 293 294 295 295 294 294 295 296 296
301 298 296 290 289 287 283 283 282 280 277 276 273 273 274 274 276 276 275 278 279 282 283 288 285 286 286 289 286 287 285 287 289 284 283 281 282 280 278 276 277 275 280 277 279 282 283 283 284 286 291 293 294 293 293 293 294 294 294 294 293 292 290 291 291 291 291 291 291 291 291 292 293 292 291 291 293 293 293 290 291 293 294 294 295 296 296
297 296 290 285 287 285 283 277 282 281 277 275 274 271 272 273 274 275 276 276 279 282 282 285 283 283 281 282 285 282 283 288 285 282 282 280 280 277 277 277 278 281 279 275 280 282 283 285 287 289 292 293 294 293 293 294 295 295 296 297 296 295 293 293 292 292 292 291 289 291 292 293 292 292 293 292 291 291 292 292 292 292 292 294 295 295 295
289 287 286 284 282 283 281 274 280 278 273 273 276 272 272 272 275 275 277 279 283 284 285 283 283 283 283 284 283 282 284 282 282 282 280 280 279 278 277 278 276 275 276 276 280 282 285 284 289 291 292 292 292 293 294 295 295 296 297 297 298 297 294 293 293 291 290 288 288 290 292 292 292 292 292 292 292 290 290 291 291 293 294 294 295 295 296
287 285 284 280 278 281 279 273 275 275 275 274 276 276 277 277 276 277 280 281 283 283 283 284 283 283 282 281 282 282 279 279 280 280 278 277 277 277 277 277 277 278 280 281 280 279 282 286 288 290 292 292 293 293 293 293 295 297 297 296 296 295 294 293 292 291 290 289 288 288 290 289 290 291 292 292 291 291 292 292 290 290 291 293 294 294 295
287 287 283 281 277 278 279 276 275 275 276 278 278 279 279 280 280 281 281 281 282 285 284 283 285 285 282 280 281 279 275 278 280 279 279 280 278 278 279 280 278 279 277 277 280 283 284 287 289 291 292 292 292 292 292 293 294 294 296 297 296 295 294 293 292 291 291 289 288 289 289 289 288 288 289 291 291 290 290 290 292 290 292 293 292 291 293
286 286 284 277 274 277 276 277 277 279 279 281 279 279 280 281 280 281 281 281 283 284 285 284 283 279 281 281 283 280 278 277 280 279 281 280 278 273 270 273 276 280 282 282 283 286 287 287 289 290 292 293 292 291 291 291 292 293 294 295 295 295 294 294 292 292 291 290 289 288 289 287 288 288 288 288 288 290 290 291 291 291 292 293 295 295 294
286 285 283 280 279 277 275 276 280 280 279 278 278 278 279 281 280 282 283 282 283 284 284 285 279 280 280 278 278 278 280 280 277 277 277 273 272 271 271 272 272 273 278 282 284 284 285 288 289 290 291 291 290 290 290 291 292 292 293 294 294 294 294 294 293 292 290 289 288 289 289 288 287 287 288 289 290 292 291 290 289 290 289 290 292 293 294
286 285 284 280 279 277 277 278 280 278 277 277 278 279 278 279 279 280 281 283 282 282 283 285 283 282 280 280 277 276 277 277 277 276 271 272 273 271 269 269 274 279 280 283 284 287 290 291 292 291 291 290 289 289 290 291 291 292 292 293 293 293 293 293 294 293 292 291 290 290 288 287 288 288 289 289 289 289 290 291 288 289 291 289 290 291 291
287 284 283 283 282 279 280 277 274 272 275 277 277 279 279 281 280 285 285 283 282 281 279 279 278 277 277 275 275 274 277 278 276 275 274 273 272 271 271 272 272 279 282 284 286 288 290 291 291 291 291 291 290 289 290 291 291 292 292 292 293 293 293 294 294 294 293 292 291 288 291 291 290 289 288 287 287 288 290 290 287 287 289 290 289 290 292
284 282 282 281 283 282 281 280 279 280 280 280 280 279 279 281 279 281 282 282 279 280 280 277 278 276 274 275 276 277 279 277 275 275 275 276 273 271 271 274 280 282 284 284 286 287 287 289 287 287 288 289 289 290 290 291 291 291 291 292 293 294 293 294 294 294 293 293 292 291 291 291 290 288 287 288 288 289 289 290 290 288 288 289 290 289 289
Wind_Speed
17 18 18 19 20 21 22 23 22 22 24 10 8 4 5 5 1 3 4 7 1 3 1 1 3 2 4 5 4 3 3 3 3 4 2 5 2 1 3 5 2 3 3 1 2 2 4 3 3 3 2 4 10 5 5 4 1 1 2 2 5 6 1 4 9 7 9 7 4 5 6 5 4 8 7 8 11 11 7 5 2 5 5 7 6 9 9
16 18 18 19 20 20 22 22 21 20 20 8 5 3 2 1 2 5 3 5 1 5 3 3 4 3 4 2 6 4 3 2 5 2 5 1 3 1 3 4 6 6 2 2 4 2 2 3 5 5 2 5 5 6 7 5 3 6 4 5 6 4 3 5 4 2 3 5 2 5 6 7 8 7 10 12 10 11 7 1 1 2 6 7 7 10 5
16 18 18 18 19 19 21 20 21 21 19 12 1 2 1 1 2 3 7 7 6 3 1 1 2 4 7 5 5 5 2 3 4 6 7 4 3 4 3 4 6 5 2 5 6 4 8 4 4 7 4 5 3 9 8 8 8 8 6 8 6 5 3 6 5 7 8 5 5 6 10 14 7 8 11 15 16 15 10 10 7 7 3 6 3 5 15
15 16 16 17 16 19 19 18 19 21 19 15 2 1 2 4 2 5 6 6 6 4 2 5 2 4 7 6 4 1 3 4 7 4 5 3 2 3 6 7 5 4 6 8 4 4 6 8 2 1 2 3 3 2 5 6 9 13 16 7 10 2 4 7 10 10 11 11 2 1 6 5 10 11 13 15 15 14 10 2 4 11 2 3 7 14 17
14 16 16 17 15 17 18 18 19 21 21 14 2 2 4 1 4 2 6 5 5 2 2 4 4 4 4 2 3 5 7 4 5 4 4 2 5 5 3 2 5 5 9 7 8 4 4 9 10 8 9 3 5 10 13 11 12 20 12 7 2 0 3 10 12 15 17 12 10 6 7 11 11 11 13 13 15 14 13 10 12 4 2 8 18 13 7
14 14 15 16 16 16 18 19 20 21 22 16 3 3 4 4 1 1 1 0 4 6 4 7 7 5 1 4 1 3 9 7 6 6 2 7 5 3 1 1 5 10 9 10 6 4 7 4 3 4 5 6 5 7 4 7 4 2 2 13 7 3 6 5 7 17 17 16 15 10 5 9 9 11 11 14 15 15 17 17 10 6 10 18 6 4 4
13 14 14 15 15 15 16 18 18 20 19 13 3 5 2 4 0 1 1 2 2 3 6 8 5 9 2 3 2 5 7 9 1 2 6 5 4 2 6 11 12 14 13 8 6 6 7 2 1 3 4 5 6 4 4 1 8 7 3 2 1 1 8 7 6 14 15 14 14 10 8 5 10 10 11 11 14 17 16 12 10 11 12 13 12 16 17
11 13 13 14 14 15 15 17 17 18 16 6 8 4 3 3 2 3 2 3 3 4 3 3 4 4 3 3 2 3 3 7 14 6 1 6 6 2 4 13 15 14 13 9 7 7 7 9 10 4 6 10 4 4 6 3 0 2 4 3 2 3 5 3 2 5 5 3 2 5 6 2 3 8 11 12 9 8 10 8 9 7 11 14 19 18 21
10 11 13 13 13 14 14 16 15 17 12 6 5 3 2 1 1 1 3 3 4 1 1 4 3 3 3 2 2 4 2 4 8 13 7 10 6 5 10 12 17 12 8 9 9 7 9 12 15 14 10 10 2 2 3 1 3 2 2 3 2 6 4 1 1 5 6 5 3 6 4 0 1 3 8 12 13 13 11 11 7 7 16 16 11 12 16
7 9 11 12 12 13 12 13 12 12 12 5 2 3 2 1 1 1 0 2 2 3 2 3 1 1 0 1 2 4 7 7 9 10 5 4 9 10 9 11 10 13 13 14 9 11 14 16 17 13 11 11 11 10 9 3 2 2 2 1 3 4 2 3 3 4 2 2 3 7 6 3 2 10 13 13 11 12 9 10 8 15 15 9 10 17 17
6 8 10 11 11 11 11 11 10 9 6 5 3 2 2 4 3 3 1 2 3 1 4 2 2 3 2 4 8 7 10 9 7 5 5 5 12 3 7 13 9 10 11 13 15 15 17 16 16 10 11 11 12 10 11 13 10 8 4 3 3 2 3 4 1 2 2 2 1 7 6 5 7 9 14 16 16 14 11 10 15 17 11 11 13 16 16
6 7 8 10 10 10 10 8 9 7 6 3 1 1 1 2 3 2 2 3 3 1 2 4 5 4 6 9 7 11 12 12 8 6 12 10 17 16 11 10 6 8 6 10 15 17 16 8 6 6 9 9 11 11 7 9 9 7 9 9 6 6 5 4 1 1 3 4 7 5 1 5 4 2 9 15 15 16 17 15 16 16 15 15 16 20 21
6 6 7 8 9 9 8 6 8 6 4 3 3 2 2 4 2 1 3 2 4 3 5 4 3 8 9 9 11 9 9 12 13 12 12 12 11 9 2 3 7 9 14 17 19 15 6 4 4 2 7 4 5 8 8 11 12 11 11 11 9 4 3 3 2 2 0 2 0 1 2 3 3 4 4 4 2 1 3 7 8 10 12 12 15 15 12
7 6 7 8 8 8 6 5 8 7 3 4 3 2 2 2 1 2 2 2 6 3 4 8 7 4 4 8 9 12 9 9 9 10 6 4 8 13 11 3 8 13 14 12 9 5 4 4 4 6 5 3 1 1 4 8 9 6 8 11 10 9 1 0 2 1 1 1 3 3 3 1 3 3 2 1 1 0 2 3 7 6 5 5 8 10 8
7 6 7 7 7 7 5 4 6 7 6 4 3 1 1 2 2 2 1 1 5 7 3 4 3 3 7 9 8 10 7 8 11 6 7 9 7 5 5 12 12 13 13 6 6 4 2 2 4 6 4 5 6 4 2 1 1 3 5 5 7 7 5 2 2 1 1 2 3 2 2 1 1 3 5 3 3 2 2 3 7 4 7 6 9 8 10
9 8 7 6 7 7 5 4 5 5 6 3 3 0 2 2 2 3 2 1 4 7 3 7 1 3 7 7 7 7 7 9 6 9 10 2 4 11 7 4 13 10 5 1 2 3 5 5 5 4 4 4 3 3 4 4 3 2 2 1 5 5 3 2 1 4 3 2 2 1 2 0 3 5 8 6 4 3 2 3 6 3 3 7 4 6 9
9 9 7 7 7 7 6 4 5 4 5 3 0 1 1 0 1 1 2 2 2 8 2 2 2 2 4 5 2 2 2 3 7 7 9 11 10 9 15 13 9 2 5 3 4 2 4 3 3 4 4 3 5 6 7 3 7 4 2 4 2 1 1 2 3 2 1 1 1 2 2 2 3 8 7 5 1 4 3 3 3 4 11 10 9 9 11
11 10 8 7 7 7 5 4 5 5 5 5 1 1 2 0 1 0 1 2 3 6 4 2 3 1 3 3 5 3 1 2 2 4 5 9 8 5 9 9 10 5 2 6 4 4 5 5 9 4 4 1 3 4 4 8 6 5 6 6 2 1 2 1 2 0 1 2 3 2 2 1 4 8 7 2 3 3 3 3 4 9 12 12 11 12 10
11 11 9 8 7 7 6 5 5 5 5 4 2 2 2 2 2 1 2 2 3 7 3 2 2 3 3 1 5 3 2 3 3 6 7 7 1 4 12 6 2 6 7 5 3 4 4 3 1 2 4 3 2 3 5 4 4 6 4 4 1 0 0 1 2 1 1 2 2 3 2 4 6 9 9 2 2 0 3 2 4 7 10 10 9 10 11
12 11 10 9 8 7 6 5 5 4 4 4 2 2 4 2 2 3 0 4 3 10 11 11 6 9 2 4 2 2 3 3 3 3 1 6 2 13 10 3 1 2 6 2 5 3 3 6 4 3 2 3 2 2 3 2 1 3 5 5 2 3 3 2 2 1 1 1 1 2 1 1 3 8 5 3 1 2 1 7 5 3 5 9 11 6 9
12 12 11 9 9 8 7 6 5 4 5 4 2 2 3 1 2 2 3 3 5 10 9 3 3 10 5 8 9 8 6 9 4 4 6 6 4 4 4 3 5 4 4 5 8 6 4 7 6 3 2 2 5 3 7 6 4 4 4 3 3 2 3 2 2 2 2 2 1 1 4 6 7 4 1 2 4 2 1 4 7 6 6 6 8 8 9
12 11 11 10 9 8 8 7 6 5 5 5 4 1 3 2 3 2 3 2 5 8 7 4 2 8 10 11 11 10 11 13 13 7 5 7 2 4 5 5 6 2 2 2 2 2 2 3 3 3 6 4 2 3 7 5 6 5 2 1 2 3 2 2 3 2 0 2 3 5 4 7 6 6 3 5 7 5 5 5 6 5 5 6 9 10 8
12 12 11 10 10 9 8 7 6 5 5 5 3 2 4 2 3 1 1 5 5 8 9 11 8 10 8 10 14 14 14 12 11 7 7 6 6 3 7 5 5 3 3 1 3 3 5 3 5 3 4 2 3 7 2 2 2 4 6 4 5 6 5 4 0 3 5 6 9 7 7 7 7 6 3 6 6 6 5 6 5 3 5 5 7 7 7
13 11 11 11 10 9 8 8 7 6 6 6 5 2 3 2 2 1 1 3 3 8 8 2 2 5 1 3 2 3 6 7 10 12 8 8 5 6 2 4 2 2 2 1 2 5 5 2 4 1 3 4 4 4 7 5 4 6 5 4 3 4 4 4 3 6 4 1 2 1 8 7 5 8 8 5 5 7 7 7 5 5 6 6 7 7 8
12 11 11 11 10 9 9 9 7 5 5 7 5 2 1 1 1 2 1 3 2 2 5 7 6 8 5 6 6 5 7 8 5 8 8 11 13 9 7 3 6 2 2 4 4 4 1 3 3 1 5 5 2 6 2 1 6 8 5 5 5 3 9 2 6 7 0 4 9 10 10 5 3 7 9 9 9 9 9 6 6 5 5 6 6 7 7
12 12 11 11 10 9 10 9 7 5 6 7 6 2 2 4 2 3 1 3 4 4 4 6 8 4 3 8 7 4 3 4 7 9 12 15 15 16 14 6 7 1 3 4 5 4 3 3 2 3 2 5 2 1 5 3 5 6 3 7 9 8 5 3 7 3 7 6 4 7 3 0 7 12 11 10 9 9 8 8 6 5 5 6 6 4 5
12 12 12 11 10 9 9 9 7 6 6 7 4 3 4 4 4 5 4 2 3 2 1 5 7 10 4 13 11 4 4 3 5 7 9 11 12 11 9 10 10 6 4 5 2 3 2 2 1 4 3 4 1 2 2 4 2 5 5 9 11 5 5 5 5 4 5 5 6 9 5 3 9 12 13 11 10 9 9 11 12 9 8 6 6 6 5
12 12 11 11 10 9 9 8 8 6 6 7 5 5 3 4 3 5 5 5 3 2 4 6 8 15 14 9 4 3 6 6 6 7 8 9 10 10 10 11 7 7 3 1 4 0 0 2 5 3 1 4 3 4 2 3 1 2 4 10 9 8 10 6 3 4 6 12 13 10 6 2 8 8 9 10 11 10 12 13 12 12 9 7 7 8 7
12 12 12 11 10 9 8 8 8 6 6 4 3 4 2 2 2 4 4 3 2 3 4 7 9 5 2 8 8 8 4 5 6 8 8 8 9 10 10 10 9 5 1 3 3 2 2 5 1 2 2 0 1 4 4 6 5 8 9 12 12 9 10 10 11 8 3 8 10 11 9 8 8 9 11 11 11 10 11 11 12 14 12 8 8 8 9
11 12 11 11 10 8 8 7 7 4 2 2 3 2 1 1 2 2 4 4 4 1 3 5 6 5 4 4 6 6 5 3 6 7 8 7 7 9 9 8 7 6 4 3 2 2 3 2 3 2 2 2 0 1 2 3 3 3 6 11 10 10 11 9 8 7 4 6 4 5 6 9 8 6 10 11 13 11 9 11 12 11 12 11 9 9 9
12 12 11 11 9 8 7 6 4 3 1 3 3 1 1 1 1 1 4 2 3 2 2 2 7 7 8 3 2 8 10 11 6 3 4 6 6 5 4 5 2 6 3 2 1 4 0 2 1 2 1 1 1 2 0 2 4 4 11 12 9 9 10 9 8 8 9 7 3 0 7 9 9 9 16 17 15 13 12 12 10 8 12 13 13 12 9
13 12 11 9 7 7 6 5 5 4 2 2 2 2 2 2 1 5 3 3 1 1 1 5 6 3 3 6 3 3 5 7 2 4 3 2 1 2 3 6 4 6 5 4 2 0 2 3 1 2 1 0 4 2 1 2 6 7 12 11 9 7 7 9 9 9 8 11 11 12 13 12 11 11 7 9 10 11 12 11 11 12 12 10 9 6 8
12 10 9 7 7 6 5 5 4 2 2 4 9 12 16 17 11 8 3 1 1 0 1 0 3 3 3 6 7 5 3 3 4 6 6 1 1 1 1 0 1 1 4 1 1 1 2 2 1 1 0 1 1 1 3 6 5 9 9 8 8 7 6 7 7 8 9 9 9 9 6 7 10 8 4 8 10 10 10 10 9 9 13 16 18 18 18
11 9 8 7 6 5 4 5 1 1 3 2 5 4 4 7 7 11 5 2 0 0 1 0 3 4 7 4 4 3 3 4 4 3 5 3 0 0 1 0 0 1 2 3 3 1 2 1 1 2 3 3 1 3 3 6 9 10 10 9 8 9 6 5 7 9 9 8 5 4 3 4 5 7 13 14 14 13 11 11 13 15 15 15 15 15 12
10 9 8 6 5 4 1 2 2 1 2 2 4 5 3 7 6 6 10 4 2 1 0 1 1 4 5 5 3 5 2 2 3 2 0 5 2 1 0 0 1 1 1 1 1 0 1 1 1 3 2 3 4 3 1 6 12 10 8 8 8 7 5 6 6 7 7 7 8 8 8 9 12 12 11 12 12 13 14 14 14 14 14 14 14 15 14
10 9 6 4 5 5 3 3 1 1 1 3 5 4 1 5 7 5 4 1 1 2 0 1 1 3 2 2 4 5 4 3 1 2 2 2 5 1 2 1 1 1 0 1 2 2 0 1 1 1 2 5 1 1 4 6 9 10 8 7 9 5 3 3 5 6 6 7 7 7 9 10 11 10 9 10 10 12 12 13 14 13 12 12 12 12 12
10 9 8 7 3 2 1 2 1 3 4 3 3 5 11 9 4 3 1 1 1 0 1 1 3 4 4 4 2 6 4 5 4 3 4 3 3 2 3 1 1 2 0 1 2 2 2 1 6 3 4 2 4 4 3 5 6 6 8 8 8 7 6 7 5 4 7 7 9 8 8 8 9 9 9 9 9 9 12 14 12 12 12 12 11 10 9
11 8 4 2 2 1 1 2 3 4 5 3 2 1 3 4 0 2 1 1 1 1 1 1 5 2 0 1 5 5 1 4 2 2 4 1 1 2 0 0 1 1 2 1 2 2 1 6 2 2 1 2 3 3 5 7 7 5 5 6 6 7 7 4 5 6 6 8 9 9 9 9 9 9 9 10 9 10 8 7 8 8 8 8 9 8 9
8 3 2 1 1 2 2 0 1 5 5 1 1 0 1 1 1 1 0 0 1 1 1 3 4 2 3 4 7 3 2 2 5 2 3 2 1 4 2 2 3 2 1 1 1 2 1 2 3 3 2 6 8 10 10 8 8 6 6 5 4 5 5 6 3 3 4 3 3 4 2 5 7 8 7 7 7 7 6 6 7 8 8 8 8 9 9
2 2 2 2 2 2 2 3 3 3 1 1 1 1 0 1 1 1 0 1 2 2 1 4 3 4 6 6 1 7 1 0 3 5 1 6 0 0 2 0 2 1 1 1 2 4 2 0 2 3 3 6 7 7 8 9 8 9 7 7 6 5 4 5 5 2 1 2 1 2 3 3 3 3 5 5 6 7 8 8 7 7 8 8 9 9 9
1 3 2 1 3 1 1 0 2 1 0 0 0 1 1 0 1 1 1 1 2 4 2 3 0 1 3 2 3 6 5 0 1 1 1 2 2 1 1 1 1 0 1 0 2 3 3 3 3 2 1 5 6 8 8 8 8 9 8 7 7 6 5 5 6 4 4 5 5 5 5 4 4 4 4 4 4 5 5 5 6 7 8 8 9 8 7
5 3 3 3 2 1 1 1 1 0 0 0 1 1 1 1 0 1 1 1 2 1 2 2 2 3 3 9 6 3 5 2 2 1 0 2 1 0 2 1 2 1 0 1 1 3 3 3 2 2 4 6 6 5 6 9 10 10 11 10 8 7 6 5 6 6 4 4 3 4 5 5 5 4 4 4 4 5 5 6 8 8 7 6 6 7 8
7 5 4 2 1 1 1 1 1 1 1 0 2 1 0 0 2 2 1 1 1 1 2 1 3 1 1 1 2 3 3 0 1 1 0 2 2 1 1 1 1 2 1 2 2 1 3 2 2 2 4 6 7 6 7 6 8 8 8 6 6 7 5 4 4 5 5 3 4 4 5 5 5 4 2 3 5 6 5 4 5 6 6 6 6 7 7
3 1 1 1 1 0 1 1 0 1 1 0 1 2 1 1 2 0 0 2 1 2 2 1 3 2 5 1 1 2 1 0 1 0 1 0 1 1 1 1 1 3 1 3 2 3 1 1 1 4 6 7 6 7 8 8 8 9 10 11 9 8 7 7 6 7 8 5 4 5 4 4 5 5 5 5 4 5 6 6 5 6 5 6 7 7 7
2 1 1 1 1 0 1 2 0 1 2 3 2 2 3 2 2 3 2 2 2 3 1 1 2 1 4 4 0 1 0 1 1 1 1 1 1 0 0 2 1 2 2 1 1 1 0 1 4 6 7 8 9 8 8 7 7 8 9 9 10 10 9 9 7 6 5 4 3 5 6 6 6 6 5 6 6 4 4 5 4 5 5 5 6 7 7
1 3 2 3 1 1 1 1 0 1 2 2 3 6 4 5 3 4 5 1 2 4 3 4 1 1 3 3 1 1 1 1 1 0 0 1 1 1 1 0 3 4 2 1 1 1 1 2 4 6 6 6 6 7 6 6 7 6 7 9 10 9 9 7 7 6 4 4 4 4 5 4 5 5 6 7 5 6 6 5 3 4 4 5 6 6 6
2 0 1 1 1 1 1 2 3 4 2 3 5 6 5 5 6 5 2 1 3 5 4 1 1 2 1 3 1 2 1 1 0 2 1 0 0 2 1 2 1 1 1 1 1 1 2 3 5 5 5 6 6 6 5 6 6 7 7 6 7 8 8 9 8 7 7 4 4 4 4 5 4 4 4 7 8 6 6 5 5 4 4 4 3 3 4
2 1 2 1 3 2 3 5 1 2 2 3 3 3 4 1 2 6 5 4 4 0 1 1 2 2 1 1 0 1 1 0 0 1 0 0 0 1 2 2 1 1 1 1 2 1 3 4 5 6 6 6 5 5 5 6 6 7 7 7 8 10 10 10 10 10 8 7 5 4 4 4 4 4 5 5 5 6 5 5 5 4 5 5 5 5 4
1 2 2 2 1 2 2 2 1 2 5 3 2 2 1 1 5 8 6 1 2 3 4 1 2 1 2 0 0 1 1 1 1 1 2 3 2 1 0 0 1 2 3 3 3 3 3 4 5 5 6 6 5 4 5 4 4 5 6 6 7 7 7 8 8 8 7 5 4 4 4 4 3 4 5 5 6 7 6 5 4 4 4 4 4 4 4
1 1 1 1 1 2 1 0 1 4 4 4 1 1 1 2 5 7 2 2 1 2 1 1 2 1 1 0 1 1 0 1 0 0 2 1 1 1 2 1 2 3 2 1 3 5 5 5 4 5 6 5 5 4 5 6 6 6 5 5 4 4 5 7 9 9 8 7 7 6 4 3 3 3 3 4 4 5 6 5 4 4 5 4 4 4 4
0 0 2 3 4 3 4 2 3 2 2 2 1 3 1 3 2 1 0 2 1 2 3 1 0 1 0 1 1 1 0 0 2 1 1 1 2 2 1 1 2 3 4 4 5 5 5 5 4 5 6 7 6 5 5 5 6 6 5 6 6 5 5 6 7 8 8 8 7 8 9 8 6 5 3 1 2 4 5 6 4 4 5 5 4 4 5
1 1 3 3 2 3 2 1 1 4 5 4 3 4 2 2 3 3 1 1 3 1 2 1 1 0 1 0 1 1 0 1 0 0 1 1 2 1 3 5 4 4 5 3 4 5 4 4 3 4 5 6 7 6 6 6 6 6 5 6 6 7 6 6 6 6 6 7 7 6 7 7 7 5 4 4 3 5 5 5 6 5 6 6 6 5 4
Wind_Direction
342 344 345 347 348 348 349 349 347 349 350 2 345 352 30 41 206 264 326 342 43 55 45 5 36 329 252 302 283 246 269 248 270 312 322 330 204 252 229 244 259 242 237 345 245 234 263 217 213 252 276 255 216 231 179 183 242 117 264 184 211 151 242 221 257 280 275 268 203 206 209 193 230 232 233 194 204 196 212 210 197 196 213 219 248 251 287
341 344 343 347 348 348 350 348 348 348 359 345 323 60 97 226 290 329 297 357 73 74 79 324 320 291 291 278 262 289 259 312 323 293 307 287 319 269 297 283 186 268 240 230 272 175 331 197 223 283 234 274 240 230 228 193 226 163 217 176 167 173 193 216 263 279 249 235 198 219 211 205 217 217 211 218 208 201 211 270 180 286 225 201 196 249 278
343 342 344 346 347 349 350 349 347 349 352 5 108 24 243 255 264 242 305 350 52 93 161 114 287 331 320 318 310 329 305 218 294 290 291 297 240 340 278 259 297 274 265 278 263 218 209 284 247 247 230 259 279 279 242 212 224 212 211 189 165 204 189 161 218 232 251 243 202 203 197 200 196 212 201 202 200 197 183 216 210 222 258 192 194 274 256
341 343 342 346 346 349 351 348 350 348 349 359 82 255 36 26 20 315 335 12 25 62 72 95 39 326 349 337 300 270 308 319 312 289 272 215 307 294 274 278 253 269 330 309 291 272 217 211 273 287 288 289 295 194 298 230 228 225 215 214 147 230 189 198 214 224 243 246 235 45 123 117 205 192 192 193 200 197 202 145 174 219 205 273 248 229 258
343 341 341 344 348 350 351 350 351 351 346 359 122 18 106 142 64 336 335 342 50 93 33 32 32 353 339 295 334 327 327 297 297 30 327 327 341 297 241 270 343 316 326 312 299 262 262 227 241 264 269 226 246 301 290 283 248 238 224 186 86 141 243 224 227 240 246 254 243 213 176 205 200 180 190 188 190 192 196 196 214 146 73 271 244 240 269
341 340 340 343 348 352 354 352 354 353 349 351 96 43 3 61 289 104 200 128 286 8 332 15 329 306 263 259 346 311 326 341 349 312 259 312 309 316 281 258 308 312 317 308 291 308 293 253 237 249 245 285 298 313 325 336 17 89 144 163 191 187 249 243 194 251 251 249 248 240 197 230 206 186 175 182 187 190 198 210 206 130 201 223 234 86 236
338 338 337 342 347 352 355 359 358 355 350 352 97 74 322 122 202 183 328 60 263 176 281 315 309 309 241 244 352 339 332 316 340 301 307 320 302 43 304 309 324 322 321 324 297 305 324 301 251 272 291 295 315 306 329 269 38 43 39 155 188 103 260 262 215 262 268 253 240 234 211 223 200 181 180 185 185 195 202 214 219 225 241 259 294 286 279
335 337 333 340 345 348 355 4 5 1 353 6 63 64 94 18 45 326 327 238 274 265 293 295 338 318 326 358 300 342 313 309 330 333 319 311 295 276 288 308 317 320 312 307 299 289 278 290 300 304 283 293 243 251 218 262 297 160 176 177 226 135 239 127 224 259 293 320 156 143 178 198 183 185 184 188 189 190 204 216 231 243 271 270 263 269 275
329 336 331 339 342 346 355 6 12 16 6 47 45 47 35 177 171 242 319 321 276 265 17 333 327 338 326 34 294 333 244 307 329 299 252 232 268 309 306 309 314 311 301 293 274 262 290 294 278 276 268 262 198 161 279 173 279 344 196 183 218 185 279 351 251 335 324 351 124 144 145 176 341 244 203 191 185 192 202 213 201 197 234 244 261 272 260
325 332 329 335 340 345 354 6 19 32 31 73 47 59 318 306 242 159 147 319 317 356 293 290 42 328 241 330 336 344 285 309 321 313 274 243 245 271 296 306 306 299 313 307 296 307 301 287 281 269 256 247 250 237 244 199 184 309 269 271 236 202 262 313 327 345 286 281 58 123 112 103 266 249 216 187 191 198 197 215 200 220 228 242 243 246 248
314 325 327 331 336 343 350 7 23 43 52 48 43 44 7 19 343 336 250 302 319 47 351 281 64 254 328 328 308 296 292 299 306 307 300 322 293 274 309 307 310 298 295 296 306 298 284 274 268 261 249 243 244 243 245 251 249 235 254 278 262 231 255 306 11 341 277 291 240 136 135 156 225 216 196 181 189 197 193 208 216 227 199 220 228 249 267
295 317 321 326 330 336 349 3 26 48 85 110 80 147 248 331 320 277 322 346 281 147 80 281 273 291 297 298 300 301 304 301 285 254 268 274 279 294 299 287 281 290 271 291 296 296 287 267 249 242 244 240 243 247 246 268 264 246 239 236 253 267 294 289 129 222 293 40 113 114 166 236 256 279 177 195 196 189 190 204 214 226 225 238 253 258 263
273 296 314 319 325 331 346 1 20 27 82 97 68 27 2 327 276 277 279 289 278 332 325 293 265 269 278 284 301 285 280 283 283 270 250 260 285 296 243 276 293 279 309 309 310 313 334 336 311 203 269 277 255 242 222 227 253 248 244 236 236 246 227 285 287 233 116 69 182 108 241 279 316 45 102 129 118 180 197 254 242 232 226 228 247 265 292
261 282 302 311 318 323 339 359 4 16 35 114 90 44 341 334 334 310 334 354 286 226 221 287 283 279 302 302 299 298 296 282 283 276 281 233 257 280 287 248 277 301 302 310 306 328 344 17 358 351 328 349 10 25 235 211 236 240 246 241 228 235 228 84 284 301 28 230 204 225 309 360 359 13 352 338 159 199 142 207 265 217 192 206 281 299 282
251 266 284 301 310 314 335 334 353 13 7 115 101 136 343 310 279 274 317 233 299 288 222 247 264 296 318 307 322 317 318 319 338 320 266 268 254 219 263 295 302 305 312 323 337 8 59 274 357 344 314 9 5 313 319 15 205 220 290 262 218 214 220 234 299 291 152 339 332 351 32 97 280 245 297 253 264 147 181 121 286 187 195 197 232 279 297
240 250 269 286 297 300 313 317 343 17 354 89 94 65 252 229 224 248 254 276 288 306 257 222 212 316 305 305 310 311 316 326 330 303 311 265 244 315 304 289 305 309 308 355 352 358 339 20 342 328 344 338 305 297 330 324 324 176 240 243 192 215 225 344 80 305 351 14 69 213 119 15 208 231 263 282 279 226 144 88 274 291 177 249 263 308 305
230 237 250 269 281 291 301 311 336 10 350 330 138 318 324 151 339 356 342 308 240 248 258 236 237 247 284 298 339 324 290 312 338 348 333 328 331 321 300 325 305 319 332 24 348 358 360 20 235 229 249 289 332 331 283 306 316 311 129 86 15 17 13 12 333 318 308 41 336 300 210 82 303 275 261 272 199 136 85 23 287 292 322 325 338 349 327
224 230 232 247 265 278 290 288 318 352 354 342 316 144 261 231 195 268 285 260 303 283 255 208 124 178 227 218 283 271 219 306 276 277 248 287 300 318 325 338 336 320 7 18 345 3 348 358 6 339 317 250 280 285 347 321 309 330 327 333 40 21 327 84 252 181 318 317 288 297 306 281 230 267 304 44 163 79 74 215 247 307 326 326 337 335 329
220 223 227 240 254 262 266 274 300 341 342 316 347 302 288 230 155 211 227 232 197 262 219 245 175 249 242 227 235 237 220 248 277 290 302 312 261 301 308 276 227 323 5 352 331 359 337 336 216 312 308 318 16 335 310 311 318 312 312 344 308 18 235 231 172 214 246 198 253 243 249 244 268 346 351 284 83 84 221 239 249 301 310 312 323 319 319
216 221 222 230 242 253 261 263 281 323 339 313 250 236 256 235 201 163 192 277 244 264 276 267 245 254 206 199 215 237 291 290 199 211 172 257 312 355 335 19 308 336 306 308 14 355 351 344 343 311 295 302 305 303 281 228 241 300 326 313 300 317 332 331 300 222 161 73 264 333 72 225 322 339 356 347 116 208 297 298 299 290 277 313 308 311 299
212 216 221 221 233 247 254 253 267 290 307 299 275 258 316 282 148 195 165 263 285 294 291 265 225 233 232 238 230 231 225 239 200 195 217 243 317 13 352 312 323 5 318 354 345 352 6 321 356 331 294 294 307 335 336 318 287 242 248 327 321 325 324 339 297 163 353 332 342 42 217 277 311 316 199 254 286 331 280 274 304 299 307 304 296 299 286
207 213 218 222 232 243 245 251 261 286 291 298 312 164 249 232 186 172 189 187 257 234 258 250 256 271 249 244 244 229 231 235 241 222 263 286 217 214 258 295 295 283 291 317 334 303 29 332 291 315 320 309 264 282 311 335 356 344 285 244 328 42 325 241 257 307 235 269 258 259 306 300 300 304 305 291 288 307 300 246 251 282 272 249 260 272 278
204 205 213 222 229 234 241 244 251 276 286 290 290 183 238 280 288 175 140 278 251 258 265 273 273 266 270 248 238 231 234 233 243 236 200 232 288 214 223 232 264 215 263 313 338 327 292 330 283 281 290 268 320 317 330 181 285 337 350 345 268 289 299 307 283 324 301 265 246 289 315 315 309 315 320 319 323 304 281 278 279 235 263 263 260 272 279
202 199 209 219 223 233 238 239 248 264 289 294 284 202 266 211 247 16 317 251 289 302 293 189 6 310 260 308 311 217 217 234 220 223 201 178 224 283 266 222 218 306 259 317 343 324 314 282 272 5 286 283 322 323 332 357 334 324 323 321 331 294 347 342 358 316 344 316 288 213 284 296 325 329 334 344 353 333 315 311 298 303 293 288 289 294 298
197 195 205 215 222 230 233 236 244 264 284 295 299 256 234 293 230 160 295 329 324 355 302 310 267 246 255 242 267 264 224 216 193 198 189 196 207 224 242 204 184 196 295 348 350 355 24 324 318 338 305 299 9 325 278 215 345 352 340 308 315 329 349 349 360 318 150 281 301 312 307 302 332 352 347 345 342 339 329 320 313 309 297 291 295 312 308
192 191 199 211 216 226 233 235 249 257 276 289 291 255 223 242 204 156 162 257 248 259 294 305 280 303 316 326 300 245 240 205 202 196 197 204 210 222 250 296 283 360 339 336 346 291 251 234 263 258 280 294 52 330 320 323 252 289 319 325 339 301 327 17 324 298 275 261 282 320 303 86 5 4 351 345 347 339 335 341 328 350 337 324 324 333 323
186 190 199 206 211 224 232 239 246 258 271 282 271 246 241 248 196 176 189 213 314 306 185 256 290 297 352 303 284 296 260 222 223 214 215 212 219 229 241 255 271 291 299 304 255 242 243 236 168 258 186 243 312 280 263 317 332 320 336 345 334 338 12 349 338 345 18 343 314 347 20 339 357 358 350 340 343 343 358 7 359 352 357 349 356 354 356
182 186 196 202 210 220 234 239 244 252 276 289 289 276 245 246 234 202 199 193 166 219 264 283 306 297 308 276 253 234 261 247 235 228 225 223 215 217 223 236 246 274 275 281 318 12 160 322 261 232 249 293 8 316 290 266 316 305 344 354 341 349 345 339 2 344 352 344 359 7 356 16 23 356 347 345 353 5 19 16 5 350 349 357 9 4 7
185 184 190 200 208 222 230 238 249 262 283 302 299 314 325 261 264 196 195 190 237 294 277 277 275 301 307 298 313 303 260 217 233 224 227 226 215 211 217 219 220 214 204 248 265 265 236 242 235 260 283 216 139 295 1 357 355 13 352 338 344 349 357 6 359 334 300 339 358 13 14 16 346 355 10 8 5 6 13 15 19 4 341 347 25 23 15
181 188 194 202 208 219 229 238 252 270 277 67 23 40 32 321 41 107 190 165 177 286 308 327 321 270 297 310 298 297 294 247 247 239 238 226 215 211 212 203 219 190 194 194 176 271 233 251 277 277 277 318 256 254 39 334 5 337 325 343 336 347 1 6 0 11 343 314 328 33 18 15 343 335 14 17 14 13 7 14 18 5 347 347 17 26 26
176 187 196 200 206 217 226 243 247 238 152 83 69 38 48 13 256 33 149 161 190 179 223 173 256 303 311 251 288 293 300 313 312 298 240 217 212 200 195 160 185 149 185 219 215 231 92 285 316 292 303 9 111 77 237 15 351 332 342 338 337 348 354 353 354 7 360 335 298 71 40 30 4 9 22 13 5 3 7 9 5 13 22 8 10 22 21
181 187 192 196 202 214 230 242 251 235 154 155 156 183 177 173 199 197 184 102 75 53 6 322 311 318 303 301 272 261 292 289 308 321 301 143 107 94 128 157 178 191 161 167 214 46 238 216 163 284 20 281 81 89 56 55 12 338 319 329 332 344 341 349 358 360 6 9 17 25 19 11 14 25 1 345 5 11 16 4 359 5 15 26 11 5 33
178 181 187 188 199 217 234 248 251 241 217 258 253 262 267 261 237 216 201 43 33 188 142 305 286 300 294 281 318 301 274 332 2 9 329 335 91 103 109 147 118 153 232 168 263 217 212 139 212 43 288 38 75 79 61 26 347 309 315 307 332 341 343 345 355 358 12 14 29 48 358 349 346 339 344 14 21 21 17 14 357 11 23 19 13 12 19
168 175 172 184 196 217 231 244 201 14 17 11 329 287 263 255 254 237 149 102 152 215 90 155 302 314 281 323 356 284 13 5 289 13 336 300 224 100 222 71 218 142 220 177 256 8 318 85 232 260 352 16 45 72 20 338 332 332 331 330 345 342 342 356 2 360 358 1 7 39 358 306 313 4 21 16 12 7 15 19 18 24 23 21 17 14 10
160 162 165 167 203 210 246 74 60 74 270 286 262 262 257 257 234 169 155 136 98 344 345 259 272 306 322 333 1 280 328 13 325 322 211 274 22 346 295 64 314 60 305 94 29 51 291 270 159 62 317 312 47 30 294 321 324 327 334 334 341 337 344 1 349 347 345 353 2 6 6 14 24 20 12 9 9 6 12 13 14 19 23 18 12 9 9
148 144 154 152 109 91 52 38 115 141 316 253 222 275 120 69 101 111 126 102 133 124 109 256 193 246 171 282 299 281 342 324 262 312 231 286 331 31 92 114 2 259 192 87 230 337 253 301 67 356 308 63 64 70 307 310 311 320 326 324 321 335 328 309 307 322 344 357 358 351 4 13 23 12 10 6 5 3 7 13 10 13 20 18 12 5 8
134 139 127 109 82 36 18 205 233 190 208 204 224 124 99 94 70 79 47 344 318 139 230 277 274 230 187 240 264 276 10 323 326 335 331 10 303 300 29 33 273 272 54 4 6 11 296 33 94 50 22 51 308 284 290 309 314 310 308 304 309 314 346 353 339 352 11 359 359 2 2 9 12 10 10 10 3 1 10 11 2 8 9 7 5 8 358
125 113 97 70 60 43 332 289 206 225 204 219 200 43 343 28 54 359 14 27 278 302 280 205 252 265 86 344 271 259 18 267 53 6 307 235 353 312 261 48 253 1 327 272 263 193 34 36 53 111 191 243 254 260 332 337 323 300 285 303 313 323 324 342 0 19 12 6 9 1 359 10 17 11 12 6 6 10 7 352 355 2 7 7 5 360 3
123 110 72 62 99 197 184 239 262 151 111 49 50 69 302 347 62 356 247 182 14 257 214 210 255 212 185 231 268 263 191 297 329 14 359 278 64 308 8 21 298 58 329 38 290 37 68 17 2 37 22 333 356 342 341 332 331 321 313 299 304 317 325 323 8 43 32 23 319 316 330 348 357 356 2 7 360 2 3 1 0 0 2 5 4 3 10
91 123 149 128 192 225 243 302 333 123 50 109 320 110 276 318 84 269 336 48 273 249 132 247 212 217 202 215 257 312 296 96 341 322 283 309 80 239 268 160 269 69 321 38 290 20 108 91 320 53 348 345 336 323 338 333 325 323 328 318 323 321 327 318 313 315 264 291 290 315 343 336 323 349 354 358 3 6 357 358 358 359 4 3 3 13 11
124 98 93 191 231 202 269 297 16 52 76 35 8 357 71 317 242 188 91 352 230 245 207 187 314 302 237 205 191 243 292 38 242 110 123 259 256 85 30 292 243 80 321 332 304 50 60 74 21 72 289 321 317 323 328 331 330 326 327 327 322 320 325 329 320 339 6 10 360 348 348 341 341 347 355 349 350 355 347 347 356 359 1 6 4 2 353
180 164 180 124 110 93 56 29 74 88 4 144 121 269 227 225 335 356 168 163 256 253 287 167 264 216 238 181 202 193 277 188 133 98 105 308 301 67 250 297 356 85 339 254 80 60 62 70 3 345 319 325 323 330 339 333 334 333 328 331 330 322 326 338 337 331 355 341 341 336 331 342 336 336 4 342 330 336 339 355 358 358 359 347 358 12 12
101 92 91 73 53 5 76 143 267 122 151 283 47 351 339 160 211 178 259 268 293 134 267 209 243 225 278 107 294 206 210 241 297 306 56 260 299 56 49 347 27 34 331 338 53 30 53 59 18 301 311 331 334 338 335 325 315 317 313 317 325 320 307 318 323 308 310 316 341 345 322 326 319 319 345 331 1 352 355 2 0 352 353 1 1 11 9
66 54 58 345 96 276 82 216 233 62 308 116 133 213 223 323 301 38 339 274 239 291 249 190 291 54 303 266 171 306 355 329 61 68 326 310 74 322 29 340 300 278 24 42 32 50 63 132 15 318 334 330 334 340 338 338 337 331 329 332 334 338 337 345 356 359 341 345 352 333 323 337 323 339 5 339 1 358 350 339 349 359 358 12 14 6 3
100 27 53 37 52 259 85 288 342 133 211 235 164 199 170 173 217 171 180 241 142 238 279 231 221 148 256 275 33 250 106 256 293 95 271 10 10 27 87 297 287 27 59 38 334 318 16 14 358 346 343 340 332 333 334 335 335 331 316 318 338 344 344 346 336 331 323 339 325 324 338 339 342 346 341 334 325 24 26 339 325 359 5 4 10 9 359
108 167 130 112 208 265 171 229 146 252 271 153 199 197 175 237 171 221 251 155 222 289 319 279 114 116 286 258 134 268 346 67 21 283 100 69 91 310 256 176 76 55 31 48 24 344 309 332 338 326 325 321 319 322 331 331 328 328 339 343 337 335 336 333 324 313 305 324 332 346 331 348 360 360 342 320 335 6 344 336 7 29 7 17 2 353 339
73 32 97 114 141 257 115 190 221 203 180 209 213 188 191 210 212 219 242 164 215 254 283 285 230 213 275 304 342 343 15 31 234 274 71 13 224 279 3 63 17 6 44 341 334 338 333 308 297 289 301 313 320 325 333 340 341 340 333 326 337 344 345 347 342 325 321 334 359 354 347 346 346 331 339 348 348 337 327 337 356 9 25 359 327 346 357
166 209 114 157 226 176 176 241 213 289 245 203 240 196 237 274 335 295 255 216 226 142 226 358 342 345 352 302 95 239 268 314 59 298 86 224 21 36 15 37 360 325 207 263 294 229 246 255 279 300 305 310 306 312 333 343 340 337 334 340 349 358 356 353 347 336 337 338 343 339 320 336 348 349 350 337 328 326 330 331 336 346 9 360 6 11 9
149 144 178 212 204 166 217 250 78 280 276 305 297 305 263 214 247 261 253 172 170 211 199 145 206 109 267 246 82 18 357 349 68 278 12 29 81 230 51 257 358 342 273 202 244 253 240 259 274 283 291 297 304 312 315 320 326 327 328 347 357 348 351 353 349 340 339 339 336 347 317 317 331 347 348 354 357 332 319 314 343 346 359 17 1 3 348
102 309 35 107 360 314 237 152 38 296 302 318 6 307 251 256 263 269 197 152 209 99 46 45 60 109 252 65 333 11 269 322 151 356 58 29 200 203 65 5 238 198 261 240 237 248 256 262 276 291 292 302 313 324 329 328 330 322 319 324 337 355 3 6 359 357 355 348 337 324 307 303 323 341 333 314 291 284 305 322 354 349 333 357 3 344 336
300 150 238 179 169 224 150 183 201 230 300 286 283 266 237 282 237 297 152 127 67 57 51 182 227 79 5 23 49 38 258 171 49 41 150 218 191 99 149 194 242 215 228 230 225 245 262 273 270 276 299 302 309 316 322 320 316 312 320 328 334 341 356 13 15 7 360 356 355 356 347 328 310 292 283 276 323 349 345 331 341 342 340 342 354 332 314
130 216 245 266 200 180 153 114 137 209 229 231 232 249 158 264 255 248 268 87 61 106 235 209 89 51 61 152 220 198 322 46 32 48 17 270 153 128 215 203 232 234 225 249 269 260 257 270 262 263 266 281 296 312 318 319 318 324 342 334 339 350 359 1 11 14 7 3 5 359 338 333 335 324 308 318 10 15 1 328 322 343 344 343 345 338 327